Location: Lake Zurich
(42.1970°N, 88.0930°W)
Time: 16:16:39
(UTC-06:00)

Daily predictions for brighter satellites

Satellite Brightness Start Highest point End
(mag) Time Altitude Azimuth Time Altitude Azimuth Time Altitude Azimuth
Meteor 1-11 Rocket 3.7 16:41:50 10° N 16:47:26 79° E 16:52:56 10° SSE
Cosmos 1975 Rocket 3.7 16:44:55 10° SSE 16:48:50 35° E 16:52:47 10° NNE
Cosmos 1606 3.5 16:45:05 10° SSW 16:48:56 56° W 16:52:49 10° N
Ariane Rocket 3.9 16:44:27 10° S 16:49:25 55° W 16:54:24 10° NNW
Cosmos 372 Rocket 4.5 16:44:31 10° S 16:49:25 42° ESE 16:54:21 10° NNE
Meteor 2-13 Rocket 4.4 16:44:05 10° N 16:50:14 77° E 16:56:18 10° SSE
USA 234 3.5 16:44:13 10° NE 16:50:45 75° NW 16:57:15 10° WSW
MSX 4.5 16:45:59 10° SE 16:51:03 33° ENE 16:56:06 10° N
SMAP 3.4 16:47:45 10° SE 16:52:07 43° ENE 16:56:31 10° N
Okean 3 3.6 16:49:15 10° S 16:53:28 58° E 16:57:42 10° NNE
SJ-12 4.2 16:50:15 10° SE 16:54:08 45° ENE 16:58:05 10° N
Cosmos 2263 Rocket 2.9 16:49:20 10° SW 16:54:49 56° WNW 17:00:24 10° NNE
NOSS 3-1 (A) 4.2 16:48:33 10° NW 16:56:12 89° SW 17:04:34 10° SSE
Thor Agena Rocket 3.9 16:51:32 10° NNE 16:56:33 49° E 17:01:37 10° S
CZ-3B DEB 2.9 16:54:53 10° S 16:57:59 28° ESE 17:04:26 10° ENE
Cosmos 1125 Rocket 3.5 16:53:13 10° SSW 16:58:30 77° ESE 17:03:51 10° NNE
CZ-4 R/B 1.4 16:56:16 10° SSE 17:00:26 66° ENE 17:04:34 10° N
Cosmos 1269 Rocket 4.0 16:56:32 10° NNW 17:01:53 81° ENE 17:07:11 10° SSE
ATLAS 2AS CENTAUR R/B 3.3 17:00:29 10° NNW 17:08:14 45° NE 17:15:34 10° ESE
Cosmos 1812 4.1 17:06:21 10° SE 17:09:11 20° E 17:12:01 10° NE
SL-8 Rocket 4.1 17:03:23 10° N 17:09:24 50° ENE 17:15:20 10° SSE
Cosmos 2251 Rocket 4.2 17:07:05 10° N 17:11:53 32° ENE 17:16:37 10° SE
YAOGAN 1 2.5 17:08:17 10° SSE 17:12:34 63° ENE 17:16:51 10° N
Meteor 1-27 Rocket 4.3 17:06:55 10° SSW 17:12:43 63° WNW 17:18:27 10° N
Cosmos 1633 3.2 17:09:50 10° NNW 17:13:22 57° W 17:16:52 10° S
Abrixas 3.9 17:14:10 10° WNW 17:16:44 26° N 17:18:36 14° NE
Cosmos 2366 rocket 4.3 17:12:47 10° N 17:18:51 45° ENE 17:24:51 10° SSE
Cosmos 1975 4.1 17:16:04 10° NNE 17:19:06 20° ENE 17:22:06 10° ESE
Cosmos 2218 Rocket 4.2 17:13:08 10° N 17:19:16 51° ENE 17:25:18 10° SSE
Cosmos 2181 Rocket 4.0 17:13:09 10° S 17:19:27 82° E 17:25:54 10° N
OTV 4 2.1 17:17:48 10° WSW 17:20:29 29° S 17:23:09 10° SE
Cosmos 1844 Rocket 2.8 17:16:13 10° S 17:21:38 55° ESE 17:27:07 10° NNE
MOS 1 4.3 17:16:49 10° SSE 17:22:29 88° WSW 17:28:11 10° NNW
Cosmos 1378 Rocket 4.3 17:20:36 10° SSW 17:24:48 53° W 17:29:02 10° N
Cosmos 1844 4.0 17:23:23 10° S 17:28:39 46° ESE 17:33:29 12° NE
SL-27 R/B 2.9 17:25:34 10° N 17:29:04 40° ENE 17:32:32 10° SE
Meteor 2-19 Rocket 4.4 17:25:25 10° N 17:31:28 67° E 17:37:28 10° SSE
GEOS 3 Rocket 3.7 17:26:39 10° SE 17:31:38 55° NE 17:36:38 10° NNW
SKYMED 2 4.1 17:28:06 10° NNE 17:32:09 37° E 17:36:10 10° SSE
Cosmos 1455 Rocket 3.3 17:31:09 10° N 17:35:24 47° ENE 17:39:39 10° SSE
ISS -3.3 17:34:02 10° SW 17:37:18 68° SE 17:38:49 29° ENE
CORIOLIS 4.4 17:35:58 10° S 17:41:22 74° WSW 17:46:48 10° NNW
COSMOS 2406 3.6 17:39:25 10° NNW 17:45:06 67° WSW 17:50:47 10° SSE
Cosmos 158 Rocket 4.4 17:40:50 10° NNW 17:46:11 67° WSW 17:51:24 10° S
Cosmos 2278 Rocket 2.6 17:41:51 10° S 17:47:03 40° ESE 17:50:04 22° NE
SL-08 R/B 4.5 17:44:14 10° N 17:50:42 82° E 17:57:00 10° S
Cosmos 1484 Rocket 2.5 17:51:57 10° SSE 17:55:44 82° ENE 17:59:29 10° N
CZ-2C R/B 3.6 17:51:21 10° S 17:56:02 45° W 18:00:55 10° NNW
Cosmos 1238 Rocket 2.4 18:00:27 10° SSW 18:03:25 65° W 18:04:44 29° N
IDEFIX/ARIANE 42P 4.3 18:06:45 10° SSW 18:11:28 35° W 18:16:12 10° NNW
Cosmos 2082 Rocket 3.0 18:06:34 10° N 18:10:50 30° NE 18:10:50 30° NE
Nadezhda 3 Rocket 4.0 18:09:07 10° SSE 18:15:07 56° E 18:21:13 10° NNE
Okean 1 3.2 18:12:02 10° S 18:16:05 88° WNW 18:17:54 32° N
OPS 8737 4.3 18:13:06 10° SW 18:16:12 75° SW 18:16:12 75° SW
Cosmos 1833 Rocket 3.8 18:14:47 10° N 18:18:13 27° NNE 18:18:13 27° NNE
COSMO-SKYMED 1 2.9 18:16:32 14° N 18:20:15 65° WNW 18:24:32 10° SSW
Meteor 2-21 4.3 18:17:10 10° N 18:23:23 77° E 18:29:31 10° SSE
Meteor 1-28 Rocket 3.2 18:29:51 78° SW 18:29:51 78° SW 18:33:28 10° SSW
USA 234 4.4 18:29:59 21° NNE 18:33:09 32° NNW 18:38:46 10° W
METEOR-M 4.0 18:32:59 10° SSE 18:38:19 85° ENE 18:43:41 10° NNW
Cosmos 1346 Rocket 3.5 18:35:38 10° SSW 18:38:33 48° SSW 18:38:33 48° SSW
NOAA 12 4.1 18:35:56 10° S 18:41:13 77° WSW 18:46:31 10° NNW
Meteor 2-14 Rocket 4.3 18:42:08 10° N 18:48:21 87° E 18:54:29 10° S
NOSS 3-3 (A) 4.0 18:44:34 10° SW 18:50:47 82° NW 18:52:24 54° NNE
NOSS 3-3 (C) 4.0 18:44:41 10° SW 18:50:52 83° NW 18:52:28 55° NNE
OTV 4 3.9 18:54:51 10° SW 18:55:03 11° SW 18:55:03 11° SW
ATLAS 2AS CENTAUR R/B 3.8 18:51:44 10° NW 18:59:24 50° WSW 19:06:32 10° S
FALCON 9 R/B 3.4 18:42:35 10° WSW 19:00:17 50° S 19:01:52 44° SSE
Timation 2 Rocket 4.1 19:05:48 10° NNW 19:12:38 84° WSW 19:13:13 76° S
Cosmos 2297 4.3 19:07:26 10° SSW 19:11:31 50° SSW 19:11:31 50° SSW
ISS 0.2 19:11:16 10° WNW 19:11:30 11° WNW 19:11:30 11° WNW
ATLAS 3B CENTAUR R/B 4.1 19:10:05 10° WSW 19:20:45 29° SSW 19:22:04 27° S
Cosmos 2278 Rocket 3.6 19:26:12 10° WSW 19:31:12 32° NW 19:31:58 30° NW
CZ-3B DEB 3.7 19:27:32 10° W 19:32:52 48° NNW 19:34:11 45° N
Cosmos 2082 Rocket 4.2 19:50:27 10° NW 19:52:44 23° NW 19:52:44 23° NW
